Year,Month,Day,Hour,Minute,Value (Times are PST for insolation in W/m^2)
2014,02,26,00,00,0.00
2014,02,26,00,01,0.00
2014,02,26,00,02,0.00
2014,02,26,00,03,0.00
2014,02,26,00,04,0.00
2014,02,26,00,05,0.00
2014,02,26,00,06,0.00
2014,02,26,00,07,0.00
2014,02,26,00,08,0.00
2014,02,26,00,09,0.00
2014,02,26,00,10,0.00
2014,02,26,00,11,0.00
2014,02,26,00,12,0.00
2014,02,26,00,13,0.00
2014,02,26,00,14,0.00
2014,02,26,00,15,0.00
2014,02,26,00,16,0.00
2014,02,26,00,17,0.00
2014,02,26,00,18,0.00
2014,02,26,00,19,0.00
2014,02,26,00,20,0.00
2014,02,26,00,21,0.00
2014,02,26,00,22,0.00
2014,02,26,00,23,0.00
2014,02,26,00,24,0.00
2014,02,26,00,25,0.00
2014,02,26,00,26,0.00
2014,02,26,00,27,0.00
2014,02,26,00,28,0.00
2014,02,26,00,29,0.00
2014,02,26,00,30,0.00
2014,02,26,00,31,0.00
2014,02,26,00,32,0.00
2014,02,26,00,33,0.00
2014,02,26,00,34,0.00
2014,02,26,00,35,0.00
2014,02,26,00,36,0.00
2014,02,26,00,37,0.00
2014,02,26,00,38,0.00
2014,02,26,00,39,0.00
2014,02,26,00,40,0.00
2014,02,26,00,41,0.00
2014,02,26,00,42,0.00
2014,02,26,00,43,0.00
2014,02,26,00,44,0.00
2014,02,26,00,45,0.00
2014,02,26,00,46,0.00
2014,02,26,00,47,0.00
2014,02,26,00,48,0.00
2014,02,26,00,49,0.00
2014,02,26,00,50,0.00
2014,02,26,00,51,0.00
2014,02,26,00,52,0.00
2014,02,26,00,53,0.00
2014,02,26,00,54,0.00
2014,02,26,00,55,0.00
2014,02,26,00,56,0.00
2014,02,26,00,57,0.00
2014,02,26,00,58,0.00
2014,02,26,00,59,0.00
2014,02,26,01,00,0.00
2014,02,26,01,01,0.00
2014,02,26,01,02,0.00
2014,02,26,01,03,0.00
2014,02,26,01,04,0.00
2014,02,26,01,05,0.00
2014,02,26,01,06,0.00
2014,02,26,01,07,0.00
2014,02,26,01,08,0.00
2014,02,26,01,09,0.00
2014,02,26,01,10,0.00
2014,02,26,01,11,0.00
2014,02,26,01,12,0.00
2014,02,26,01,13,0.00
2014,02,26,01,14,0.00
2014,02,26,01,15,0.00
2014,02,26,01,16,0.00
2014,02,26,01,17,0.00
2014,02,26,01,18,0.00
2014,02,26,01,19,0.00
2014,02,26,01,20,0.00
2014,02,26,01,21,0.00
2014,02,26,01,22,0.00
2014,02,26,01,23,0.00
2014,02,26,01,24,0.00
2014,02,26,01,25,0.00
2014,02,26,01,26,0.00
2014,02,26,01,27,0.00
2014,02,26,01,28,0.00
2014,02,26,01,29,0.00
2014,02,26,01,30,0.00
2014,02,26,01,31,0.00
2014,02,26,01,32,0.00
2014,02,26,01,33,0.00
2014,02,26,01,34,0.00
2014,02,26,01,35,0.00
2014,02,26,01,36,0.00
2014,02,26,01,37,0.00
2014,02,26,01,38,0.00
2014,02,26,01,39,0.00
2014,02,26,01,40,0.00
2014,02,26,01,41,0.00
2014,02,26,01,42,0.00
2014,02,26,01,43,0.00
2014,02,26,01,44,0.00
2014,02,26,01,45,0.00
2014,02,26,01,46,0.00
2014,02,26,01,47,0.00
2014,02,26,01,48,0.00
2014,02,26,01,49,0.00
2014,02,26,01,50,0.00
2014,02,26,01,51,0.00
2014,02,26,01,52,0.00
2014,02,26,01,53,0.00
2014,02,26,01,54,0.00
2014,02,26,01,55,0.00
2014,02,26,01,56,0.00
2014,02,26,01,57,0.00
2014,02,26,01,58,0.00
2014,02,26,01,59,0.00
2014,02,26,02,00,0.00
2014,02,26,02,01,0.00
2014,02,26,02,02,0.00
2014,02,26,02,03,0.00
2014,02,26,02,04,0.00
2014,02,26,02,05,0.00
2014,02,26,02,06,0.00
2014,02,26,02,07,0.00
2014,02,26,02,08,0.00
2014,02,26,02,09,0.00
2014,02,26,02,10,0.00
2014,02,26,02,11,0.00
2014,02,26,02,12,0.00
2014,02,26,02,13,0.00
2014,02,26,02,14,0.00
2014,02,26,02,15,0.00
2014,02,26,02,16,0.00
2014,02,26,02,17,0.00
2014,02,26,02,18,0.00
2014,02,26,02,19,0.00
2014,02,26,02,20,0.00
2014,02,26,02,21,0.00
2014,02,26,02,22,0.00
2014,02,26,02,23,0.00
2014,02,26,02,24,0.00
2014,02,26,02,25,0.00
2014,02,26,02,26,0.00
2014,02,26,02,27,0.00
2014,02,26,02,28,0.00
2014,02,26,02,29,0.00
2014,02,26,02,30,0.00
2014,02,26,02,31,0.00
2014,02,26,02,32,0.00
2014,02,26,02,33,0.00
2014,02,26,02,34,0.00
2014,02,26,02,35,0.00
2014,02,26,02,36,0.00
2014,02,26,02,37,0.00
2014,02,26,02,38,0.00
2014,02,26,02,39,0.00
2014,02,26,02,40,0.00
2014,02,26,02,41,0.00
2014,02,26,02,42,0.00
2014,02,26,02,43,0.00
2014,02,26,02,44,0.00
2014,02,26,02,45,0.00
2014,02,26,02,46,0.00
2014,02,26,02,47,0.00
2014,02,26,02,48,0.00
2014,02,26,02,49,0.00
2014,02,26,02,50,0.00
2014,02,26,02,51,0.00
2014,02,26,02,52,0.00
2014,02,26,02,53,0.00
2014,02,26,02,54,0.00
2014,02,26,02,55,0.00
2014,02,26,02,56,0.00
2014,02,26,02,57,0.00
2014,02,26,02,58,0.00
2014,02,26,02,59,0.00
2014,02,26,03,00,0.00
2014,02,26,03,01,0.00
2014,02,26,03,02,0.00
2014,02,26,03,03,0.00
2014,02,26,03,04,0.00
2014,02,26,03,05,0.00
2014,02,26,03,06,0.00
2014,02,26,03,07,0.00
2014,02,26,03,08,0.00
2014,02,26,03,09,0.00
2014,02,26,03,10,0.00
2014,02,26,03,11,0.00
2014,02,26,03,12,0.00
2014,02,26,03,13,0.00
2014,02,26,03,14,0.00
2014,02,26,03,15,0.00
2014,02,26,03,16,0.00
2014,02,26,03,17,0.00
2014,02,26,03,18,0.00
2014,02,26,03,19,0.00
2014,02,26,03,20,0.00
2014,02,26,03,21,0.00
2014,02,26,03,22,0.00
2014,02,26,03,23,0.00
2014,02,26,03,24,0.00
2014,02,26,03,25,0.00
2014,02,26,03,26,0.00
2014,02,26,03,27,0.00
2014,02,26,03,28,0.00
2014,02,26,03,29,0.00
2014,02,26,03,30,0.00
2014,02,26,03,31,0.00
2014,02,26,03,32,0.00
2014,02,26,03,33,0.00
2014,02,26,03,34,0.00
2014,02,26,03,35,0.00
2014,02,26,03,36,0.00
2014,02,26,03,37,0.00
2014,02,26,03,38,0.00
2014,02,26,03,39,0.00
2014,02,26,03,40,0.00
2014,02,26,03,41,0.00
2014,02,26,03,42,0.00
2014,02,26,03,43,0.00
2014,02,26,03,44,0.00
2014,02,26,03,45,0.00
2014,02,26,03,46,0.00
2014,02,26,03,47,0.00
2014,02,26,03,48,0.00
2014,02,26,03,49,0.00
2014,02,26,03,50,0.00
2014,02,26,03,51,0.00
2014,02,26,03,52,0.00
2014,02,26,03,53,0.00
2014,02,26,03,54,0.00
2014,02,26,03,55,0.00
2014,02,26,03,56,0.00
2014,02,26,03,57,0.00
2014,02,26,03,58,0.00
2014,02,26,03,59,0.00
2014,02,26,04,00,0.00
2014,02,26,04,01,0.00
2014,02,26,04,02,0.00
2014,02,26,04,03,0.00
2014,02,26,04,04,0.00
2014,02,26,04,05,0.00
2014,02,26,04,06,0.00
2014,02,26,04,07,0.00
2014,02,26,04,08,0.00
2014,02,26,04,09,0.00
2014,02,26,04,10,0.00
2014,02,26,04,11,0.00
2014,02,26,04,12,0.00
2014,02,26,04,13,0.00
2014,02,26,04,14,0.00
2014,02,26,04,15,0.00
2014,02,26,04,16,0.00
2014,02,26,04,17,0.00
2014,02,26,04,18,0.00
2014,02,26,04,19,0.00
2014,02,26,04,20,0.00
2014,02,26,04,21,0.00
2014,02,26,04,22,0.00
2014,02,26,04,23,0.00
2014,02,26,04,24,0.00
2014,02,26,04,25,0.00
2014,02,26,04,26,0.00
2014,02,26,04,27,0.00
2014,02,26,04,28,0.00
2014,02,26,04,29,0.00
2014,02,26,04,30,0.00
2014,02,26,04,31,0.00
2014,02,26,04,32,0.00
2014,02,26,04,33,0.00
2014,02,26,04,34,0.00
2014,02,26,04,35,0.00
2014,02,26,04,36,0.00
2014,02,26,04,37,0.00
2014,02,26,04,38,0.00
2014,02,26,04,39,0.00
2014,02,26,04,40,0.00
2014,02,26,04,41,0.00
2014,02,26,04,42,0.00
2014,02,26,04,43,0.00
2014,02,26,04,44,0.00
2014,02,26,04,45,0.00
2014,02,26,04,46,0.00
2014,02,26,04,47,0.00
2014,02,26,04,48,0.00
2014,02,26,04,49,0.00
2014,02,26,04,50,0.00
2014,02,26,04,51,0.00
2014,02,26,04,52,0.00
2014,02,26,04,53,0.00
2014,02,26,04,54,0.00
2014,02,26,04,55,0.00
2014,02,26,04,56,0.00
2014,02,26,04,57,0.00
2014,02,26,04,58,0.00
2014,02,26,04,59,0.00
2014,02,26,05,00,0.00
2014,02,26,05,01,0.00
2014,02,26,05,02,0.00
2014,02,26,05,03,0.00
2014,02,26,05,04,0.00
2014,02,26,05,05,0.00
2014,02,26,05,06,0.00
2014,02,26,05,07,0.00
2014,02,26,05,08,0.00
2014,02,26,05,09,0.00
2014,02,26,05,10,0.00
2014,02,26,05,11,0.00
2014,02,26,05,12,0.00
2014,02,26,05,13,0.00
2014,02,26,05,14,0.00
2014,02,26,05,15,0.00
2014,02,26,05,16,0.00
2014,02,26,05,17,0.00
2014,02,26,05,18,0.00
2014,02,26,05,19,0.00
2014,02,26,05,20,0.00
2014,02,26,05,21,0.00
2014,02,26,05,22,0.00
2014,02,26,05,23,0.00
2014,02,26,05,24,0.00
2014,02,26,05,25,0.00
2014,02,26,05,26,0.00
2014,02,26,05,27,0.00
2014,02,26,05,28,0.00
2014,02,26,05,29,0.00
2014,02,26,05,30,0.00
2014,02,26,05,31,0.00
2014,02,26,05,32,0.00
2014,02,26,05,33,0.00
2014,02,26,05,34,0.00
2014,02,26,05,35,0.00
2014,02,26,05,36,0.00
2014,02,26,05,37,0.00
2014,02,26,05,38,0.00
2014,02,26,05,39,0.00
2014,02,26,05,40,0.00
2014,02,26,05,41,0.00
2014,02,26,05,42,0.00
2014,02,26,05,43,0.00
2014,02,26,05,44,0.00
2014,02,26,05,45,0.00
2014,02,26,05,46,0.00
2014,02,26,05,47,0.00
2014,02,26,05,48,0.00
2014,02,26,05,49,0.00
2014,02,26,05,50,0.00
2014,02,26,05,51,0.00
2014,02,26,05,52,0.00
2014,02,26,05,53,0.00
2014,02,26,05,54,0.00
2014,02,26,05,55,0.00
2014,02,26,05,56,0.00
2014,02,26,05,57,0.00
2014,02,26,05,58,0.00
2014,02,26,05,59,0.00
2014,02,26,06,00,0.00
2014,02,26,06,01,0.00
2014,02,26,06,02,0.00
2014,02,26,06,03,0.00
2014,02,26,06,04,0.00
2014,02,26,06,05,0.00
2014,02,26,06,06,0.00
2014,02,26,06,07,0.00
2014,02,26,06,08,0.00
2014,02,26,06,09,0.00
2014,02,26,06,10,0.00
2014,02,26,06,11,0.00
2014,02,26,06,12,0.00
2014,02,26,06,13,0.00
2014,02,26,06,14,0.00
2014,02,26,06,15,0.00
2014,02,26,06,16,0.00
2014,02,26,06,17,0.00
2014,02,26,06,18,0.00
2014,02,26,06,19,0.00
2014,02,26,06,20,0.00
2014,02,26,06,21,0.00
2014,02,26,06,22,0.00
2014,02,26,06,23,0.00
2014,02,26,06,24,0.00
2014,02,26,06,25,0.00
2014,02,26,06,26,0.00
2014,02,26,06,27,0.00
2014,02,26,06,28,0.00
2014,02,26,06,29,0.00
2014,02,26,06,30,0.00
2014,02,26,06,31,0.00
2014,02,26,06,32,0.00
2014,02,26,06,33,0.00
2014,02,26,06,34,0.00
2014,02,26,06,35,0.00
2014,02,26,06,36,0.00
2014,02,26,06,37,0.00
2014,02,26,06,38,0.00
2014,02,26,06,39,0.00
2014,02,26,06,40,0.00
2014,02,26,06,41,0.00
2014,02,26,06,42,0.00
2014,02,26,06,43,0.00
2014,02,26,06,44,0.00
2014,02,26,06,45,0.00
2014,02,26,06,46,0.00
2014,02,26,06,47,0.00
2014,02,26,06,48,0.00
2014,02,26,06,49,0.00
2014,02,26,06,50,0.00
2014,02,26,06,51,0.00
2014,02,26,06,52,0.00
2014,02,26,06,53,0.00
2014,02,26,06,54,0.00
2014,02,26,06,55,0.00
2014,02,26,06,56,0.00
2014,02,26,06,57,0.00
2014,02,26,06,58,0.00
2014,02,26,06,59,0.00
2014,02,26,07,00,0.00
2014,02,26,07,01,0.00
2014,02,26,07,02,0.00
2014,02,26,07,03,0.00
2014,02,26,07,04,0.00
2014,02,26,07,05,0.00
2014,02,26,07,06,0.00
2014,02,26,07,07,0.00
2014,02,26,07,08,0.00
2014,02,26,07,09,0.00
2014,02,26,07,10,0.00
2014,02,26,07,11,0.00
2014,02,26,07,12,0.00
2014,02,26,07,13,0.00
2014,02,26,07,14,0.00
2014,02,26,07,15,0.00
2014,02,26,07,16,3.20
2014,02,26,07,17,5.00
2014,02,26,07,18,5.00
2014,02,26,07,19,6.90
2014,02,26,07,20,7.00
2014,02,26,07,21,7.60
2014,02,26,07,22,9.00
2014,02,26,07,23,9.90
2014,02,26,07,24,11.00
2014,02,26,07,25,11.60
2014,02,26,07,26,12.00
2014,02,26,07,27,13.80
2014,02,26,07,28,14.00
2014,02,26,07,29,14.00
2014,02,26,07,30,15.20
2014,02,26,07,31,18.00
2014,02,26,07,32,18.00
2014,02,26,07,33,18.60
2014,02,26,07,34,19.00
2014,02,26,07,35,19.00
2014,02,26,07,36,19.00
2014,02,26,07,37,19.30
2014,02,26,07,38,21.00
2014,02,26,07,39,21.00
2014,02,26,07,40,21.00
2014,02,26,07,41,21.00
2014,02,26,07,42,22.30
2014,02,26,07,43,23.00
2014,02,26,07,44,24.70
2014,02,26,07,45,25.00
2014,02,26,07,46,26.40
2014,02,26,07,47,28.00
2014,02,26,07,48,28.80
2014,02,26,07,49,30.90
2014,02,26,07,50,32.00
2014,02,26,07,51,32.70
2014,02,26,07,52,33.00
2014,02,26,07,53,33.00
2014,02,26,07,54,33.20
2014,02,26,07,55,35.00
2014,02,26,07,56,35.70
2014,02,26,07,57,37.90
2014,02,26,07,58,39.00
2014,02,26,07,59,39.70
2014,02,26,08,00,40.00
2014,02,26,08,01,41.60
2014,02,26,08,02,44.00
2014,02,26,08,03,46.00
2014,02,26,08,04,46.30
2014,02,26,08,05,47.00
2014,02,26,08,06,48.00
2014,02,26,08,07,50.20
2014,02,26,08,08,51.00
2014,02,26,08,09,49.40
2014,02,26,08,10,49.00
2014,02,26,08,11,49.20
2014,02,26,08,12,51.40
2014,02,26,08,13,53.90
2014,02,26,08,14,56.00
2014,02,26,08,15,56.00
2014,02,26,08,16,56.00
2014,02,26,08,17,56.00
2014,02,26,08,18,56.00
2014,02,26,08,19,56.10
2014,02,26,08,20,58.30
2014,02,26,08,21,60.00
2014,02,26,08,22,60.70
2014,02,26,08,23,62.50
2014,02,26,08,24,64.10
2014,02,26,08,25,66.30
2014,02,26,08,26,71.00
2014,02,26,08,27,82.80
2014,02,26,08,28,97.70
2014,02,26,08,29,106.60
2014,02,26,08,30,113.30
2014,02,26,08,31,113.60
2014,02,26,08,32,112.00
2014,02,26,08,33,111.00
2014,02,26,08,34,112.40
2014,02,26,08,35,117.00
2014,02,26,08,36,120.70
2014,02,26,08,37,119.60
2014,02,26,08,38,116.00
2014,02,26,08,39,117.20
2014,02,26,08,40,124.20
2014,02,26,08,41,133.70
2014,02,26,08,42,139.60
2014,02,26,08,43,139.50
2014,02,26,08,44,135.60
2014,02,26,08,45,125.10
2014,02,26,08,46,112.60
2014,02,26,08,47,94.30
2014,02,26,08,48,100.40
2014,02,26,08,49,103.70
2014,02,26,08,50,103.80
2014,02,26,08,51,109.20
2014,02,26,08,52,88.90
2014,02,26,08,53,77.90
2014,02,26,08,54,76.50
2014,02,26,08,55,90.00
2014,02,26,08,56,111.40
2014,02,26,08,57,124.60
2014,02,26,08,58,134.50
2014,02,26,08,59,140.20
2014,02,26,09,00,139.50
2014,02,26,09,01,135.00
2014,02,26,09,02,121.30
2014,02,26,09,03,114.00
2014,02,26,09,04,113.80
2014,02,26,09,05,110.50
2014,02,26,09,06,100.50
2014,02,26,09,07,88.40
2014,02,26,09,08,78.40
2014,02,26,09,09,76.00
2014,02,26,09,10,78.60
2014,02,26,09,11,84.40
2014,02,26,09,12,88.40
2014,02,26,09,13,90.00
2014,02,26,09,14,90.40
2014,02,26,09,15,92.00
2014,02,26,09,16,95.40
2014,02,26,09,17,99.00
2014,02,26,09,18,101.60
2014,02,26,09,19,95.70
2014,02,26,09,20,91.00
2014,02,26,09,21,91.00
2014,02,26,09,22,92.20
2014,02,26,09,23,96.30
2014,02,26,09,24,100.20
2014,02,26,09,25,103.90
2014,02,26,09,26,109.40
2014,02,26,09,27,116.70
2014,02,26,09,28,114.10
2014,02,26,09,29,109.80
2014,02,26,09,30,104.10
2014,02,26,09,31,103.10
2014,02,26,09,32,107.90
2014,02,26,09,33,115.20
2014,02,26,09,34,122.60
2014,02,26,09,35,134.60
2014,02,26,09,36,157.70
2014,02,26,09,37,180.40
2014,02,26,09,38,193.60
2014,02,26,09,39,200.00
2014,02,26,09,40,200.00
2014,02,26,09,41,200.00
2014,02,26,09,42,194.00
2014,02,26,09,43,192.10
2014,02,26,09,44,196.40
2014,02,26,09,45,203.80
2014,02,26,09,46,205.90
2014,02,26,09,47,198.20
2014,02,26,09,48,193.00
2014,02,26,09,49,193.00
2014,02,26,09,50,194.10
2014,02,26,09,51,195.00
2014,02,26,09,52,200.20
2014,02,26,09,53,207.90
2014,02,26,09,54,208.10
2014,02,26,09,55,197.00
2014,02,26,09,56,181.10
2014,02,26,09,57,172.70
2014,02,26,09,58,202.00
2014,02,26,09,59,230.00
2014,02,26,10,00,259.40
2014,02,26,10,01,252.80
2014,02,26,10,02,252.50
2014,02,26,10,03,256.70
2014,02,26,10,04,255.00
2014,02,26,10,05,243.30
2014,02,26,10,06,208.80
2014,02,26,10,07,195.30
2014,02,26,10,08,192.00
2014,02,26,10,09,201.00
2014,02,26,10,10,215.90
2014,02,26,10,11,215.80
2014,02,26,10,12,210.40
2014,02,26,10,13,206.10
2014,02,26,10,14,204.00
2014,02,26,10,15,208.10
2014,02,26,10,16,218.70
2014,02,26,10,17,224.40
2014,02,26,10,18,216.80
2014,02,26,10,19,198.70
2014,02,26,10,20,181.40
2014,02,26,10,21,170.50
2014,02,26,10,22,164.40
2014,02,26,10,23,162.60
2014,02,26,10,24,162.00
2014,02,26,10,25,162.00
2014,02,26,10,26,164.20
2014,02,26,10,27,165.00
2014,02,26,10,28,171.90
2014,02,26,10,29,186.20
2014,02,26,10,30,194.80
2014,02,26,10,31,201.40
2014,02,26,10,32,204.00
2014,02,26,10,33,194.10
2014,02,26,10,34,178.20
2014,02,26,10,35,175.50
2014,02,26,10,36,188.00
2014,02,26,10,37,197.50
2014,02,26,10,38,206.60
2014,02,26,10,39,202.20
2014,02,26,10,40,193.90
2014,02,26,10,41,184.90
2014,02,26,10,42,178.00
2014,02,26,10,43,173.10
2014,02,26,10,44,169.60
2014,02,26,10,45,165.40
2014,02,26,10,46,161.60
2014,02,26,10,47,158.00
2014,02,26,10,48,159.30
2014,02,26,10,49,164.80
2014,02,26,10,50,174.20
2014,02,26,10,51,187.40
2014,02,26,10,52,194.20
2014,02,26,10,53,196.70
2014,02,26,10,54,202.40
2014,02,26,10,55,216.20
2014,02,26,10,56,233.20
2014,02,26,10,57,249.00
2014,02,26,10,58,261.00
2014,02,26,10,59,260.10
2014,02,26,11,00,253.10
2014,02,26,11,01,245.40
2014,02,26,11,02,247.60
2014,02,26,11,03,247.80
2014,02,26,11,04,245.60
2014,02,26,11,05,243.70
2014,02,26,11,06,243.00
2014,02,26,11,07,243.00
2014,02,26,11,08,240.60
2014,02,26,11,09,236.90
2014,02,26,11,10,230.10
2014,02,26,11,11,225.20
2014,02,26,11,12,223.00
2014,02,26,11,13,224.50
2014,02,26,11,14,232.50
2014,02,26,11,15,239.00
2014,02,26,11,16,242.90
2014,02,26,11,17,236.90
2014,02,26,11,18,219.20
2014,02,26,11,19,207.50
2014,02,26,11,20,199.10
2014,02,26,11,21,201.20
2014,02,26,11,22,206.30
2014,02,26,11,23,206.60
2014,02,26,11,24,204.00
2014,02,26,11,25,200.20
2014,02,26,11,26,199.00
2014,02,26,11,27,197.40
2014,02,26,11,28,198.80
2014,02,26,11,29,208.50
2014,02,26,11,30,221.80
2014,02,26,11,31,224.30
2014,02,26,11,32,218.50
2014,02,26,11,33,209.70
2014,02,26,11,34,208.30
2014,02,26,11,35,205.50
2014,02,26,11,36,194.40
2014,02,26,11,37,183.40
2014,02,26,11,38,184.40
2014,02,26,11,39,195.00
2014,02,26,11,40,203.60
2014,02,26,11,41,209.80
2014,02,26,11,42,226.00
2014,02,26,11,43,245.90
2014,02,26,11,44,244.70
2014,02,26,11,45,241.20
2014,02,26,11,46,248.20
2014,02,26,11,47,248.60
2014,02,26,11,48,239.10
2014,02,26,11,49,226.00
2014,02,26,11,50,213.00
2014,02,26,11,51,197.60
2014,02,26,11,52,187.50
2014,02,26,11,53,191.90
2014,02,26,11,54,212.20
2014,02,26,11,55,219.30
2014,02,26,11,56,231.00
2014,02,26,11,57,255.10
2014,02,26,11,58,271.50
2014,02,26,11,59,266.00
2014,02,26,12,00,245.80
2014,02,26,12,01,230.70
2014,02,26,12,02,241.80
2014,02,26,12,03,259.10
2014,02,26,12,04,283.00
2014,02,26,12,05,304.70
2014,02,26,12,06,285.20
2014,02,26,12,07,277.00
2014,02,26,12,08,279.00
2014,02,26,12,09,281.00
2014,02,26,12,10,278.60
2014,02,26,12,11,257.40
2014,02,26,12,12,225.20
2014,02,26,12,13,206.10
2014,02,26,12,14,192.60
2014,02,26,12,15,185.10
2014,02,26,12,16,204.50
2014,02,26,12,17,237.80
2014,02,26,12,18,276.50
2014,02,26,12,19,285.00
2014,02,26,12,20,230.40
2014,02,26,12,21,201.70
2014,02,26,12,22,201.00
2014,02,26,12,23,202.60
2014,02,26,12,24,200.00
2014,02,26,12,25,206.10
2014,02,26,12,26,211.00
2014,02,26,12,27,209.50
2014,02,26,12,28,210.80
2014,02,26,12,29,208.30
2014,02,26,12,30,198.20
2014,02,26,12,31,182.40
2014,02,26,12,32,183.20
2014,02,26,12,33,204.40
2014,02,26,12,34,221.00
2014,02,26,12,35,221.00
2014,02,26,12,36,221.00
2014,02,26,12,37,221.00
2014,02,26,12,38,224.30
2014,02,26,12,39,242.80
2014,02,26,12,40,218.60
2014,02,26,12,41,217.10
2014,02,26,12,42,228.50
2014,02,26,12,43,258.30
2014,02,26,12,44,259.20
2014,02,26,12,45,244.80
2014,02,26,12,46,271.10
2014,02,26,12,47,294.20
2014,02,26,12,48,274.00
2014,02,26,12,49,354.40
2014,02,26,12,50,342.80
2014,02,26,12,51,344.80
2014,02,26,12,52,367.50
2014,02,26,12,53,342.90
2014,02,26,12,54,399.20
2014,02,26,12,55,339.50
2014,02,26,12,56,366.90
2014,02,26,12,57,352.80
2014,02,26,12,58,345.20
2014,02,26,12,59,364.20
2014,02,26,13,00,371.60
2014,02,26,13,01,350.50
2014,02,26,13,02,286.00
2014,02,26,13,03,338.10
2014,02,26,13,04,263.30
2014,02,26,13,05,312.40
2014,02,26,13,06,357.80
2014,02,26,13,07,366.00
2014,02,26,13,08,349.50
2014,02,26,13,09,317.80
2014,02,26,13,10,324.50
2014,02,26,13,11,363.10
2014,02,26,13,12,363.80
2014,02,26,13,13,360.10
2014,02,26,13,14,365.80
2014,02,26,13,15,361.80
2014,02,26,13,16,348.00
2014,02,26,13,17,384.00
2014,02,26,13,18,355.50
2014,02,26,13,19,342.00
2014,02,26,13,20,361.20
2014,02,26,13,21,332.50
2014,02,26,13,22,351.80
2014,02,26,13,23,369.70
2014,02,26,13,24,362.50
2014,02,26,13,25,361.40
2014,02,26,13,26,387.20
2014,02,26,13,27,407.30
2014,02,26,13,28,379.10
2014,02,26,13,29,351.10
2014,02,26,13,30,371.00
2014,02,26,13,31,457.30
2014,02,26,13,32,664.50
2014,02,26,13,33,612.50
2014,02,26,13,34,575.00
2014,02,26,13,35,655.20
2014,02,26,13,36,682.00
2014,02,26,13,37,493.90
2014,02,26,13,38,473.40
2014,02,26,13,39,513.20
2014,02,26,13,40,478.40
2014,02,26,13,41,424.80
2014,02,26,13,42,372.30
2014,02,26,13,43,357.20
2014,02,26,13,44,361.80
2014,02,26,13,45,348.60
2014,02,26,13,46,309.00
2014,02,26,13,47,288.20
2014,02,26,13,48,276.00
2014,02,26,13,49,267.40
2014,02,26,13,50,256.30
2014,02,26,13,51,244.90
2014,02,26,13,52,242.40
2014,02,26,13,53,243.00
2014,02,26,13,54,243.00
2014,02,26,13,55,228.50
2014,02,26,13,56,216.00
2014,02,26,13,57,227.70
2014,02,26,13,58,258.60
2014,02,26,13,59,288.70
2014,02,26,14,00,297.20
2014,02,26,14,01,267.00
2014,02,26,14,02,266.80
2014,02,26,14,03,212.00
2014,02,26,14,04,209.00
2014,02,26,14,05,209.50
2014,02,26,14,06,222.60
2014,02,26,14,07,255.00
2014,02,26,14,08,235.10
2014,02,26,14,09,209.00
2014,02,26,14,10,235.20
2014,02,26,14,11,235.10
2014,02,26,14,12,228.60
2014,02,26,14,13,198.10
2014,02,26,14,14,204.60
2014,02,26,14,15,212.30
2014,02,26,14,16,201.60
2014,02,26,14,17,168.40
2014,02,26,14,18,157.90
2014,02,26,14,19,161.70
2014,02,26,14,20,188.60
2014,02,26,14,21,200.00
2014,02,26,14,22,200.00
2014,02,26,14,23,213.90
2014,02,26,14,24,220.80
2014,02,26,14,25,193.00
2014,02,26,14,26,181.10
2014,02,26,14,27,180.00
2014,02,26,14,28,177.10
2014,02,26,14,29,152.90
2014,02,26,14,30,138.20
2014,02,26,14,31,134.00
2014,02,26,14,32,135.10
2014,02,26,14,33,140.30
2014,02,26,14,34,146.80
2014,02,26,14,35,152.90
2014,02,26,14,36,159.00
2014,02,26,14,37,162.70
2014,02,26,14,38,171.10
2014,02,26,14,39,177.40
2014,02,26,14,40,188.00
2014,02,26,14,41,198.60
2014,02,26,14,42,209.00
2014,02,26,14,43,221.10
2014,02,26,14,44,223.50
2014,02,26,14,45,260.40
2014,02,26,14,46,261.50
2014,02,26,14,47,245.70
2014,02,26,14,48,244.20
2014,02,26,14,49,248.00
2014,02,26,14,50,249.40
2014,02,26,14,51,253.10
2014,02,26,14,52,229.60
2014,02,26,14,53,263.60
2014,02,26,14,54,292.20
2014,02,26,14,55,293.80
2014,02,26,14,56,289.60
2014,02,26,14,57,293.50
2014,02,26,14,58,306.20
2014,02,26,14,59,305.00
2014,02,26,15,00,281.40
2014,02,26,15,01,254.20
2014,02,26,15,02,244.80
2014,02,26,15,03,237.60
2014,02,26,15,04,233.80
2014,02,26,15,05,231.40
2014,02,26,15,06,229.00
2014,02,26,15,07,229.00
2014,02,26,15,08,227.00
2014,02,26,15,09,222.60
2014,02,26,15,10,217.20
2014,02,26,15,11,216.00
2014,02,26,15,12,207.20
2014,02,26,15,13,201.60
2014,02,26,15,14,198.50
2014,02,26,15,15,197.00
2014,02,26,15,16,196.10
2014,02,26,15,17,195.00
2014,02,26,15,18,193.60
2014,02,26,15,19,192.20
2014,02,26,15,20,192.00
2014,02,26,15,21,189.80
2014,02,26,15,22,185.00
2014,02,26,15,23,179.50
2014,02,26,15,24,174.40
2014,02,26,15,25,170.50
2014,02,26,15,26,166.60
2014,02,26,15,27,163.60
2014,02,26,15,28,163.00
2014,02,26,15,29,163.00
2014,02,26,15,30,163.20
2014,02,26,15,31,164.60
2014,02,26,15,32,163.00
2014,02,26,15,33,162.50
2014,02,26,15,34,160.80
2014,02,26,15,35,157.40
2014,02,26,15,36,155.20
2014,02,26,15,37,153.30
2014,02,26,15,38,152.80
2014,02,26,15,39,150.70
2014,02,26,15,40,149.60
2014,02,26,15,41,151.00
2014,02,26,15,42,150.00
2014,02,26,15,43,149.00
2014,02,26,15,44,149.00
2014,02,26,15,45,149.00
2014,02,26,15,46,149.10
2014,02,26,15,47,151.20
2014,02,26,15,48,154.20
2014,02,26,15,49,160.20
2014,02,26,15,50,168.60
2014,02,26,15,51,177.50
2014,02,26,15,52,190.10
2014,02,26,15,53,212.20
2014,02,26,15,54,237.60
2014,02,26,15,55,223.30
2014,02,26,15,56,210.40
2014,02,26,15,57,207.00
2014,02,26,15,58,202.40
2014,02,26,15,59,194.00
2014,02,26,16,00,193.00
2014,02,26,16,01,193.00
2014,02,26,16,02,194.50
2014,02,26,16,03,226.40
2014,02,26,16,04,275.20
2014,02,26,16,05,293.10
2014,02,26,16,06,232.20
2014,02,26,16,07,211.40
2014,02,26,16,08,188.00
2014,02,26,16,09,171.80
2014,02,26,16,10,163.50
2014,02,26,16,11,157.20
2014,02,26,16,12,151.40
2014,02,26,16,13,147.10
2014,02,26,16,14,140.00
2014,02,26,16,15,131.80
2014,02,26,16,16,125.80
2014,02,26,16,17,119.20
2014,02,26,16,18,114.10
2014,02,26,16,19,108.50
2014,02,26,16,20,102.80
2014,02,26,16,21,97.90
2014,02,26,16,22,92.70
2014,02,26,16,23,90.20
2014,02,26,16,24,88.00
2014,02,26,16,25,87.10
2014,02,26,16,26,84.90
2014,02,26,16,27,83.20
2014,02,26,16,28,81.30
2014,02,26,16,29,82.80
2014,02,26,16,30,82.80
2014,02,26,16,31,80.60
2014,02,26,16,32,79.00
2014,02,26,16,33,79.00
2014,02,26,16,34,78.00
2014,02,26,16,35,76.30
2014,02,26,16,36,74.50
2014,02,26,16,37,72.40
2014,02,26,16,38,69.90
2014,02,26,16,39,68.70
2014,02,26,16,40,66.50
2014,02,26,16,41,64.20
2014,02,26,16,42,62.50
2014,02,26,16,43,59.70
2014,02,26,16,44,56.70
2014,02,26,16,45,56.00
2014,02,26,16,46,54.20
2014,02,26,16,47,53.90
2014,02,26,16,48,52.60
2014,02,26,16,49,50.40
2014,02,26,16,50,48.20
2014,02,26,16,51,46.50
2014,02,26,16,52,44.70
2014,02,26,16,53,44.00
2014,02,26,16,54,42.40
2014,02,26,16,55,40.10
2014,02,26,16,56,40.00
2014,02,26,16,57,39.20
2014,02,26,16,58,37.00
2014,02,26,16,59,36.10
2014,02,26,17,00,35.00
2014,02,26,17,01,35.00
2014,02,26,17,02,35.00
2014,02,26,17,03,33.30
2014,02,26,17,04,33.00
2014,02,26,17,05,33.00
2014,02,26,17,06,33.00
2014,02,26,17,07,33.00
2014,02,26,17,08,32.50
2014,02,26,17,09,32.00
2014,02,26,17,10,32.00
2014,02,26,17,11,30.40
2014,02,26,17,12,30.00
2014,02,26,17,13,29.70
2014,02,26,17,14,28.00
2014,02,26,17,15,28.00
2014,02,26,17,16,28.00
2014,02,26,17,17,28.00
2014,02,26,17,18,28.00
2014,02,26,17,19,26.50